Lid_Strength_Index
13 13 12 11 11 10 11 11 11 11 11 12 11 11 10 8 5 2 3 4 4 6 6 7 7 7 8 9 9 10 10 10 11 14 12 12 11 11 12 11 11 11 12
13 13 13 12 12 11 11 12 11 12 11 11 11 12 11 12 12 8 6 6 6 6 7 8 8 8 8 8 9 10 10 10 11 14 14 14 13 12 12 12 12 12 11
13 13 13 13 13 13 12 12 12 12 12 12 12 12 13 12 13 14 10 7 6 6 7 8 8 8 9 10 10 11 11 11 11 13 14 13 13 12 13 12 12 13 12
13 13 14 13 13 13 13 13 13 13 13 13 13 13 13 13 13 13 12 10 7 7 8 8 8 9 9 10 10 11 11 12 12 12 13 14 14 13 13 14 14 13 14
14 14 14 13 13 13 14 14 14 14 14 14 14 14 14 13 13 13 13 11 9 8 8 8 8 10 10 10 10 11 11 12 12 13 13 15 15 15 15 14 15 15 16
14 14 14 14 14 13 14 14 15 15 15 15 15 16 15 14 13 12 12 13 12 11 11 10 9 12 11 11 10 9 10 11 12 12 13 14 15 15 14 14 15 16 16
13 13 14 14 14 14 14 15 15 16 16 17 16 16 17 15 13 12 13 14 14 14 13 12 13 12 12 10 10 10 10 10 10 11 12 13 14 14 14 15 15 15 15
13 14 14 15 16 15 15 15 16 16 17 17 17 17 17 16 14 13 13 14 15 14 14 14 13 13 13 13 13 13 13 12 11 11 11 11 12 12 13 14 14 16 18
14 14 15 16 16 16 17 16 15 17 18 18 17 17 17 17 15 14 13 14 15 14 14 15 14 15 13 12 14 14 13 13 11 10 10 9 11 11 13 14 16 15 16
14 15 16 16 17 17 16 16 16 16 18 18 18 16 17 17 16 15 14 15 15 15 14 15 14 15 13 12 13 13 14 13 13 13 12 11 11 12 12 13 14 15 16
15 16 16 16 17 16 16 16 17 18 18 19 19 17 16 16 18 15 15 16 16 16 16 15 15 14 13 12 11 13 13 13 13 14 14 14 14 13 14 14 15 14 15
16 16 17 17 17 16 17 17 17 18 18 18 19 19 17 17 16 16 15 15 15 17 17 16 16 14 13 12 12 11 11 11 13 13 14 14 15 15 14 16 17 17 18
18 19 19 18 18 17 18 18 18 18 19 18 18 19 19 18 17 16 16 16 16 17 17 16 15 15 14 13 12 12 12 13 13 14 14 14 14 14 16 17 20 20 20
19 19 18 18 18 18 17 17 17 18 19 19 19 18 19 19 19 18 17 16 16 17 17 17 16 16 14 12 13 12 12 12 13 13 14 14 17 17 17 17 18 19 19
19 18 18 17 17 17 17 17 18 17 18 19 18 18 19 19 19 17 17 17 16 16 17 18 18 18 17 16 15 15 13 13 13 13 13 15 16 16 17 16 17 17 18
19 18 17 18 17 17 18 18 16 15 15 15 15 16 17 16 15 16 16 16 16 15 17 19 20 19 19 18 18 18 16 16 13 13 13 14 14 15 17 17 16 16 17
20 18 18 18 18 18 18 19 20 18 16 16 16 16 16 16 15 15 16 17 17 18 22 21 20 20 20 21 20 20 19 18 17 13 13 14 15 14 16 16 17 16 16
21 21 20 19 18 18 19 19 20 21 22 21 18 18 17 17 16 16 16 17 22 22 23 23 22 22 21 22 22 22 22 21 20 19 14 14 15 15 16 16 16 16 15
20 19 18 18 18 19 20 21 20 21 21 22 21 19 19 18 18 17 17 21 23 24 24 24 23 23 23 22 22 23 23 22 21 20 18 14 14 15 15 15 16 15 16
21 22 22 20 19 19 20 21 21 21 21 22 22 22 21 22 22 21 20 20 21 23 24 24 25 24 24 24 24 23 23 23 22 21 20 19 14 14 16 16 16 15 16
18 18 20 20 21 20 20 21 21 22 22 23 22 21 18 19 21 22 22 22 22 22 23 24 25 25 25 25 25 24 24 23 22 22 20 21 21 15 15 15 15 15 15
19 19 19 19 19 20 21 21 21 22 22 22 22 21 18 22 23 23 23 23 23 22 22 23 25 26 26 26 26 26 26 25 23 22 22 22 22 22 15 15 15 16 16
20 19 19 19 19 20 21 22 22 22 22 21 21 22 22 22 22 22 22 22 23 23 23 23 24 25 25 26 26 26 26 26 24 23 24 24 23 23 22 17 15 16 16
18 19 19 20 21 21 21 22 21 22 22 22 22 22 22 22 22 22 22 22 23 23 23 24 24 25 25 26 26 26 26 26 25 25 25 24 24 23 23 21 16 15 15
20 20 21 21 21 22 22 22 22 21 21 21 22 21 21 21 22 22 22 22 23 24 25 25 25 25 26 27 26 27 26 26 27 26 27 26 26 24 24 22 21 16 15
20 20 21 21 21 21 22 22 22 21 22 21 21 21 21 21 22 22 22 23 24 24 25 25 25 26 26 26 27 25 25 25 27 27 27 27 27 25 23 22 20 20 15